This demonstration page uses our WeatherBlox Daily Observations layout. Learn more.

Left ArrowRight Arrow

34.02893, -84.19858

Hourly Observations for February 1, 2022

Temp ( °F °C ) Dew Point ( °F °C ) Humidity (%) Winds ( mph kmh ) Pressure ( in mb ) Visibility ( mi km ) Precip ( " mm )
12:53 am 00:53 Clear 30 -1.1 23 -5 75 75 NNE 3 6 30.23 1024 10 16 0.00 0.00
1:53 am 01:53 Clear 32 0 24 -4.4 73 73 Calm 30.21 1023 10 16 0.00 0.00
2:53 am 02:53 Clear 30 -1.1 23 -5 75 75 Calm 30.23 1024 10 16 0.00 0.00
3:53 am 03:53 Clear 29 -1.7 22 -5.6 75 75 Calm 30.23 1024 10 16 0.00 0.00
4:53 am 04:53 Clear 36 2.2 22 -5.6 57 57 Calm 30.24 1024 10 16 0.00 0.00
5:53 am 05:53 Clear 38 3.3 23 -5 55 55 VRB 5 7 30.25 1025 10 16 0.00 0.00
6:53 am 06:53 Clear 37 2.8 24 -4.4 59 59 VRB 5 7 30.29 1026 10 16 0.00 0.00
7:53 am 07:53 Sunny 36 2.2 25 -3.9 64 64 E 3 6 30.32 1027 10 16 0.00 0.00
8:53 am 08:53 Sunny 40 4.4 26 -3.3 58 58 VRB 5 7 30.35 1028 10 16 0.00 0.00
9:53 am 09:53 Sunny 44 6.7 28 -2.2 53 53 VRB 7 11 30.36 1028 10 16 0.00 0.00
10:53 am 10:53 Sunny 48 8.9 30 -1.1 50 50 VRB 7 11 30.37 1028 10 16 0.00 0.00
11:53 am 11:53 Sunny 51 10.6 32 0 48 48 ENE 5 7 30.35 1028 10 16 0.00 0.00
12:53 pm 12:53 Sunny 55 12.8 30 -1.1 38 38 undefined N/A 30.32 1027 10 16 0.00 0.00
1:53 pm 13:53 Sunny 57 13.9 28 -2.2 33 33 undefined N/A 30.28 1026 10 16 0.00 0.00
2:53 pm 14:53 Sunny 59 15 28 -2.2 31 31 VRB 3 6 30.26 1025 10 16 0.00 0.00
3:53 pm 15:53 Sunny 59 15 28 -2.2 31 31 VRB 7 11 30.25 1025 10 16 0.00 0.00
4:53 pm 16:53 Sunny 59 15 29 -1.7 32 32 undefined N/A 30.24 1024 10 16 0.00 0.00
5:53 pm 17:53 Sunny 55 12.8 30 -1.1 38 38 VRB 3 6 30.25 1025 10 16 0.00 0.00
6:53 pm 18:53 Clear 52 11.1 30 -1.1 43 43 E 3 6 30.27 1025 10 16 0.00 0.00
7:53 pm 19:53 Clear 51 10.6 30 -1.1 44 44 VRB 3 6 30.28 1026 10 16 0.00 0.00
8:53 pm 20:53 Clear 49 9.4 32 0 52 52 VRB 3 6 30.28 1026 10 16 0.00 0.00
9:53 pm 21:53 Clear 49 9.4 32 0 52 52 ENE 7 11 30.27 1025 10 16 0.00 0.00
10:53 pm 22:53 Clear 48 8.9 32 0 54 54 VRB 7 11 30.28 1025 10 16 0.00 0.00
11:53 pm 23:53 Clear 47 8.3 32 0 56 56 undefined N/A 30.27 1025 10 16 0.00 0.00

Powered by AerisWeather